Year,Month,Day,Hour,Minute,Value (Times are PST for temperature in C)
2009,04,04,00,00,1.50
2009,04,04,00,01,1.50
2009,04,04,00,02,1.50
2009,04,04,00,03,1.50
2009,04,04,00,04,1.50
2009,04,04,00,05,1.50
2009,04,04,00,06,1.50
2009,04,04,00,07,1.50
2009,04,04,00,08,1.50
2009,04,04,00,09,1.50
2009,04,04,00,10,1.50
2009,04,04,00,11,1.50
2009,04,04,00,12,1.50
2009,04,04,00,13,1.50
2009,04,04,00,14,1.50
2009,04,04,00,15,1.50
2009,04,04,00,16,1.50
2009,04,04,00,17,1.50
2009,04,04,00,18,1.50
2009,04,04,00,19,1.50
2009,04,04,00,20,1.40
2009,04,04,00,21,1.40
2009,04,04,00,22,1.40
2009,04,04,00,23,1.40
2009,04,04,00,24,1.40
2009,04,04,00,25,1.40
2009,04,04,00,26,1.40
2009,04,04,00,27,1.40
2009,04,04,00,28,1.40
2009,04,04,00,29,1.40
2009,04,04,00,30,1.40
2009,04,04,00,31,1.40
2009,04,04,00,32,1.40
2009,04,04,00,33,1.40
2009,04,04,00,34,1.40
2009,04,04,00,35,1.40
2009,04,04,00,36,1.40
2009,04,04,00,37,1.30
2009,04,04,00,38,1.30
2009,04,04,00,39,1.30
2009,04,04,00,40,1.30
2009,04,04,00,41,1.30
2009,04,04,00,42,1.30
2009,04,04,00,43,1.30
2009,04,04,00,44,1.30
2009,04,04,00,45,1.30
2009,04,04,00,46,1.30
2009,04,04,00,47,1.30
2009,04,04,00,48,1.20
2009,04,04,00,49,1.20
2009,04,04,00,50,1.20
2009,04,04,00,51,1.10
2009,04,04,00,52,1.10
2009,04,04,00,53,1.10
2009,04,04,00,54,1.10
2009,04,04,00,55,1.00
2009,04,04,00,56,1.00
2009,04,04,00,57,1.00
2009,04,04,00,58,1.00
2009,04,04,00,59,1.00
2009,04,04,01,00,1.00
2009,04,04,01,01,1.00
2009,04,04,01,02,1.00
2009,04,04,01,03,1.00
2009,04,04,01,04,1.00
2009,04,04,01,05,1.00
2009,04,04,01,06,1.00
2009,04,04,01,07,1.10
2009,04,04,01,08,1.00
2009,04,04,01,09,1.00
2009,04,04,01,10,1.00
2009,04,04,01,11,1.00
2009,04,04,01,12,1.00
2009,04,04,01,13,1.10
2009,04,04,01,14,1.10
2009,04,04,01,15,1.10
2009,04,04,01,16,1.10
2009,04,04,01,17,1.10
2009,04,04,01,18,1.20
2009,04,04,01,19,1.20
2009,04,04,01,20,1.20
2009,04,04,01,21,1.20
2009,04,04,01,22,1.20
2009,04,04,01,23,1.20
2009,04,04,01,24,1.10
2009,04,04,01,25,1.10
2009,04,04,01,26,1.10
2009,04,04,01,27,1.10
2009,04,04,01,28,1.00
2009,04,04,01,29,1.00
2009,04,04,01,30,0.90
2009,04,04,01,31,0.90
2009,04,04,01,32,0.90
2009,04,04,01,33,0.80
2009,04,04,01,34,0.80
2009,04,04,01,35,0.80
2009,04,04,01,36,0.80
2009,04,04,01,37,0.80
2009,04,04,01,38,0.80
2009,04,04,01,39,0.80
2009,04,04,01,40,0.80
2009,04,04,01,41,0.90
2009,04,04,01,42,0.90
2009,04,04,01,43,0.90
2009,04,04,01,44,0.90
2009,04,04,01,45,0.90
2009,04,04,01,46,0.90
2009,04,04,01,47,0.90
2009,04,04,01,48,0.90
2009,04,04,01,49,0.90
2009,04,04,01,50,0.80
2009,04,04,01,51,0.80
2009,04,04,01,52,0.80
2009,04,04,01,53,0.80
2009,04,04,01,54,0.80
2009,04,04,01,55,0.80
2009,04,04,01,56,0.80
2009,04,04,01,57,0.80
2009,04,04,01,58,0.80
2009,04,04,01,59,0.80
2009,04,04,02,00,0.80
2009,04,04,02,01,0.80
2009,04,04,02,02,0.80
2009,04,04,02,03,0.90
2009,04,04,02,04,0.90
2009,04,04,02,05,0.90
2009,04,04,02,06,0.90
2009,04,04,02,07,0.90
2009,04,04,02,08,0.90
2009,04,04,02,09,0.90
2009,04,04,02,10,0.90
2009,04,04,02,11,0.80
2009,04,04,02,12,0.80
2009,04,04,02,13,0.80
2009,04,04,02,14,0.80
2009,04,04,02,15,0.80
2009,04,04,02,16,0.80
2009,04,04,02,17,0.80
2009,04,04,02,18,0.90
2009,04,04,02,19,0.90
2009,04,04,02,20,0.90
2009,04,04,02,21,1.00
2009,04,04,02,22,1.00
2009,04,04,02,23,1.00
2009,04,04,02,24,1.10
2009,04,04,02,25,1.10
2009,04,04,02,26,1.10
2009,04,04,02,27,1.10
2009,04,04,02,28,1.10
2009,04,04,02,29,1.10
2009,04,04,02,30,1.10
2009,04,04,02,31,1.10
2009,04,04,02,32,1.10
2009,04,04,02,33,1.10
2009,04,04,02,34,1.10
2009,04,04,02,35,1.10
2009,04,04,02,36,1.10
2009,04,04,02,37,1.10
2009,04,04,02,38,1.10
2009,04,04,02,39,1.10
2009,04,04,02,40,1.00
2009,04,04,02,41,1.00
2009,04,04,02,42,1.00
2009,04,04,02,43,1.00
2009,04,04,02,44,1.00
2009,04,04,02,45,1.00
2009,04,04,02,46,0.90
2009,04,04,02,47,0.90
2009,04,04,02,48,0.90
2009,04,04,02,49,0.90
2009,04,04,02,50,0.90
2009,04,04,02,51,1.00
2009,04,04,02,52,1.00
2009,04,04,02,53,1.00
2009,04,04,02,54,1.00
2009,04,04,02,55,1.00
2009,04,04,02,56,1.00
2009,04,04,02,57,0.90
2009,04,04,02,58,0.90
2009,04,04,02,59,0.90
2009,04,04,03,00,0.90
2009,04,04,03,01,0.90
2009,04,04,03,02,0.90
2009,04,04,03,03,0.80
2009,04,04,03,04,0.80
2009,04,04,03,05,0.80
2009,04,04,03,06,0.80
2009,04,04,03,07,0.80
2009,04,04,03,08,0.80
2009,04,04,03,09,0.80
2009,04,04,03,10,0.80
2009,04,04,03,11,0.90
2009,04,04,03,12,0.90
2009,04,04,03,13,0.90
2009,04,04,03,14,0.90
2009,04,04,03,15,1.00
2009,04,04,03,16,1.00
2009,04,04,03,17,1.00
2009,04,04,03,18,1.10
2009,04,04,03,19,1.10
2009,04,04,03,20,1.10
2009,04,04,03,21,1.10
2009,04,04,03,22,1.10
2009,04,04,03,23,1.20
2009,04,04,03,24,1.20
2009,04,04,03,25,1.20
2009,04,04,03,26,1.20
2009,04,04,03,27,1.20
2009,04,04,03,28,1.20
2009,04,04,03,29,1.20
2009,04,04,03,30,1.20
2009,04,04,03,31,1.20
2009,04,04,03,32,1.20
2009,04,04,03,33,1.10
2009,04,04,03,34,1.10
2009,04,04,03,35,1.10
2009,04,04,03,36,1.10
2009,04,04,03,37,1.10
2009,04,04,03,38,1.10
2009,04,04,03,39,1.10
2009,04,04,03,40,1.10
2009,04,04,03,41,1.10
2009,04,04,03,42,1.10
2009,04,04,03,43,1.10
2009,04,04,03,44,1.10
2009,04,04,03,45,1.00
2009,04,04,03,46,1.00
2009,04,04,03,47,1.00
2009,04,04,03,48,1.00
2009,04,04,03,49,1.00
2009,04,04,03,50,1.00
2009,04,04,03,51,1.00
2009,04,04,03,52,1.00
2009,04,04,03,53,1.00
2009,04,04,03,54,1.00
2009,04,04,03,55,1.00
2009,04,04,03,56,1.00
2009,04,04,03,57,1.00
2009,04,04,03,58,1.00
2009,04,04,03,59,1.00
2009,04,04,04,00,1.00
2009,04,04,04,01,0.90
2009,04,04,04,02,0.90
2009,04,04,04,03,0.90
2009,04,04,04,04,0.90
2009,04,04,04,05,0.90
2009,04,04,04,06,0.90
2009,04,04,04,07,0.80
2009,04,04,04,08,0.80
2009,04,04,04,09,0.80
2009,04,04,04,10,0.80
2009,04,04,04,11,0.90
2009,04,04,04,12,0.90
2009,04,04,04,13,0.90
2009,04,04,04,14,1.00
2009,04,04,04,15,1.00
2009,04,04,04,16,0.90
2009,04,04,04,17,0.90
2009,04,04,04,18,0.90
2009,04,04,04,19,0.90
2009,04,04,04,20,0.80
2009,04,04,04,21,0.80
2009,04,04,04,22,0.80
2009,04,04,04,23,0.80
2009,04,04,04,24,0.70
2009,04,04,04,25,0.70
2009,04,04,04,26,0.70
2009,04,04,04,27,0.70
2009,04,04,04,28,0.70
2009,04,04,04,29,0.70
2009,04,04,04,30,0.60
2009,04,04,04,31,0.60
2009,04,04,04,32,0.60
2009,04,04,04,33,0.60
2009,04,04,04,34,0.60
2009,04,04,04,35,0.60
2009,04,04,04,36,0.60
2009,04,04,04,37,0.70
2009,04,04,04,38,0.70
2009,04,04,04,39,0.70
2009,04,04,04,40,0.70
2009,04,04,04,41,0.70
2009,04,04,04,42,0.70
2009,04,04,04,43,0.70
2009,04,04,04,44,0.70
2009,04,04,04,45,0.70
2009,04,04,04,46,0.70
2009,04,04,04,47,0.60
2009,04,04,04,48,0.60
2009,04,04,04,49,0.60
2009,04,04,04,50,0.60
2009,04,04,04,51,0.60
2009,04,04,04,52,0.50
2009,04,04,04,53,0.50
2009,04,04,04,54,0.60
2009,04,04,04,55,0.60
2009,04,04,04,56,0.60
2009,04,04,04,57,0.60
2009,04,04,04,58,0.60
2009,04,04,04,59,0.60
2009,04,04,05,00,0.60
2009,04,04,05,01,0.70
2009,04,04,05,02,0.70
2009,04,04,05,03,0.70
2009,04,04,05,04,0.70
2009,04,04,05,05,0.70
2009,04,04,05,06,0.80
2009,04,04,05,07,0.80
2009,04,04,05,08,0.80
2009,04,04,05,09,0.80
2009,04,04,05,10,0.80
2009,04,04,05,11,0.80
2009,04,04,05,12,0.80
2009,04,04,05,13,0.90
2009,04,04,05,14,0.90
2009,04,04,05,15,1.00
2009,04,04,05,16,1.00
2009,04,04,05,17,1.00
2009,04,04,05,18,1.00
2009,04,04,05,19,1.10
2009,04,04,05,20,1.10
2009,04,04,05,21,1.10
2009,04,04,05,22,1.10
2009,04,04,05,23,1.20
2009,04,04,05,24,1.20
2009,04,04,05,25,1.20
2009,04,04,05,26,1.20
2009,04,04,05,27,1.20
2009,04,04,05,28,1.20
2009,04,04,05,29,1.30
2009,04,04,05,30,1.30
2009,04,04,05,31,1.30
2009,04,04,05,32,1.30
2009,04,04,05,33,1.20
2009,04,04,05,34,1.20
2009,04,04,05,35,1.20
2009,04,04,05,36,1.10
2009,04,04,05,37,1.10
2009,04,04,05,38,1.00
2009,04,04,05,39,1.00
2009,04,04,05,40,1.00
2009,04,04,05,41,1.00
2009,04,04,05,42,0.90
2009,04,04,05,43,0.90
2009,04,04,05,44,1.00
2009,04,04,05,45,1.00
2009,04,04,05,46,1.00
2009,04,04,05,47,1.00
2009,04,04,05,48,0.90
2009,04,04,05,49,0.90
2009,04,04,05,50,0.90
2009,04,04,05,51,0.80
2009,04,04,05,52,0.80
2009,04,04,05,53,0.80
2009,04,04,05,54,0.80
2009,04,04,05,55,0.70
2009,04,04,05,56,0.70
2009,04,04,05,57,0.60
2009,04,04,05,58,0.60
2009,04,04,05,59,0.60
2009,04,04,06,00,0.50
2009,04,04,06,01,0.50
2009,04,04,06,02,0.50
2009,04,04,06,03,0.40
2009,04,04,06,04,0.40
2009,04,04,06,05,0.40
2009,04,04,06,06,0.40
2009,04,04,06,07,0.40
2009,04,04,06,08,0.30
2009,04,04,06,09,0.30
2009,04,04,06,10,0.30
2009,04,04,06,11,0.30
2009,04,04,06,12,0.40
2009,04,04,06,13,0.40
2009,04,04,06,14,0.40
2009,04,04,06,15,0.40
2009,04,04,06,16,0.40
2009,04,04,06,17,0.40
2009,04,04,06,18,0.40
2009,04,04,06,19,0.40
2009,04,04,06,20,0.40
2009,04,04,06,21,0.40
2009,04,04,06,22,0.40
2009,04,04,06,23,0.40
2009,04,04,06,24,0.40
2009,04,04,06,25,0.40
2009,04,04,06,26,0.40
2009,04,04,06,27,0.40
2009,04,04,06,28,0.40
2009,04,04,06,29,0.40
2009,04,04,06,30,0.40
2009,04,04,06,31,0.40
2009,04,04,06,32,0.40
2009,04,04,06,33,0.40
2009,04,04,06,34,0.40
2009,04,04,06,35,0.30
2009,04,04,06,36,0.30
2009,04,04,06,37,0.20
2009,04,04,06,38,0.20
2009,04,04,06,39,0.10
2009,04,04,06,40,0.10
2009,04,04,06,41,0.10
2009,04,04,06,42,0.10
2009,04,04,06,43,0.10
2009,04,04,06,44,0.10
2009,04,04,06,45,0.10
2009,04,04,06,46,0.10
2009,04,04,06,47,0.10
2009,04,04,06,48,0.10
2009,04,04,06,49,0.10
2009,04,04,06,50,0.10
2009,04,04,06,51,0.10
2009,04,04,06,52,0.10
2009,04,04,06,53,0.10
2009,04,04,06,54,0.10
2009,04,04,06,55,0.10
2009,04,04,06,56,0.10
2009,04,04,06,57,0.10
2009,04,04,06,58,0.10
2009,04,04,06,59,0.10
2009,04,04,07,00,0.10
2009,04,04,07,01,0.10
2009,04,04,07,02,0.10
2009,04,04,07,03,0.10
2009,04,04,07,04,0.10
2009,04,04,07,05,0.10
2009,04,04,07,06,0.10
2009,04,04,07,07,0.10
2009,04,04,07,08,0.10
2009,04,04,07,09,0.10
2009,04,04,07,10,0.10
2009,04,04,07,11,0.20
2009,04,04,07,12,0.20
2009,04,04,07,13,0.20
2009,04,04,07,14,0.20
2009,04,04,07,15,0.30
2009,04,04,07,16,0.30
2009,04,04,07,17,0.30
2009,04,04,07,18,0.30
2009,04,04,07,19,0.40
2009,04,04,07,20,0.40
2009,04,04,07,21,0.40
2009,04,04,07,22,0.50
2009,04,04,07,23,0.50
2009,04,04,07,24,0.60
2009,04,04,07,25,0.60
2009,04,04,07,26,0.60
2009,04,04,07,27,0.70
2009,04,04,07,28,0.70
2009,04,04,07,29,0.80
2009,04,04,07,30,0.80
2009,04,04,07,31,0.80
2009,04,04,07,32,0.80
2009,04,04,07,33,0.80
2009,04,04,07,34,0.80
2009,04,04,07,35,0.80
2009,04,04,07,36,0.80
2009,04,04,07,37,0.90
2009,04,04,07,38,0.90
2009,04,04,07,39,0.90
2009,04,04,07,40,1.00
2009,04,04,07,41,1.00
2009,04,04,07,42,1.00
2009,04,04,07,43,1.10
2009,04,04,07,44,1.10
2009,04,04,07,45,1.20
2009,04,04,07,46,1.20
2009,04,04,07,47,1.30
2009,04,04,07,48,1.30
2009,04,04,07,49,1.40
2009,04,04,07,50,1.50
2009,04,04,07,51,1.50
2009,04,04,07,52,1.60
2009,04,04,07,53,1.60
2009,04,04,07,54,1.70
2009,04,04,07,55,1.80
2009,04,04,07,56,1.80
2009,04,04,07,57,1.90
2009,04,04,07,58,1.90
2009,04,04,07,59,2.00
2009,04,04,08,00,2.10
2009,04,04,08,01,2.10
2009,04,04,08,02,2.20
2009,04,04,08,03,2.20
2009,04,04,08,04,2.30
2009,04,04,08,05,2.30
2009,04,04,08,06,2.40
2009,04,04,08,07,2.40
2009,04,04,08,08,2.50
2009,04,04,08,09,2.50
2009,04,04,08,10,2.60
2009,04,04,08,11,2.60
2009,04,04,08,12,2.60
2009,04,04,08,13,2.70
2009,04,04,08,14,2.70
2009,04,04,08,15,2.70
2009,04,04,08,16,2.70
2009,04,04,08,17,2.70
2009,04,04,08,18,2.80
2009,04,04,08,19,2.80
2009,04,04,08,20,2.90
2009,04,04,08,21,2.90
2009,04,04,08,22,3.00
2009,04,04,08,23,3.10
2009,04,04,08,24,3.10
2009,04,04,08,25,3.10
2009,04,04,08,26,3.10
2009,04,04,08,27,3.20
2009,04,04,08,28,3.20
2009,04,04,08,29,3.20
2009,04,04,08,30,3.30
2009,04,04,08,31,3.30
2009,04,04,08,32,3.30
2009,04,04,08,33,3.30
2009,04,04,08,34,3.40
2009,04,04,08,35,3.40
2009,04,04,08,36,3.50
2009,04,04,08,37,3.50
2009,04,04,08,38,3.60
2009,04,04,08,39,3.60
2009,04,04,08,40,3.70
2009,04,04,08,41,3.80
2009,04,04,08,42,3.80
2009,04,04,08,43,3.80
2009,04,04,08,44,3.80
2009,04,04,08,45,3.90
2009,04,04,08,46,4.00
2009,04,04,08,47,4.00
2009,04,04,08,48,4.10
2009,04,04,08,49,4.20
2009,04,04,08,50,4.30
2009,04,04,08,51,4.40
2009,04,04,08,52,4.50
2009,04,04,08,53,4.60
2009,04,04,08,54,4.60
2009,04,04,08,55,4.70
2009,04,04,08,56,4.80
2009,04,04,08,57,4.80
2009,04,04,08,58,4.80
2009,04,04,08,59,4.90
2009,04,04,09,00,4.90
2009,04,04,09,01,5.10
2009,04,04,09,02,5.10
2009,04,04,09,03,5.20
2009,04,04,09,04,5.20
2009,04,04,09,05,5.30
2009,04,04,09,06,5.30
2009,04,04,09,07,5.30
2009,04,04,09,08,5.30
2009,04,04,09,09,5.30
2009,04,04,09,10,5.40
2009,04,04,09,11,5.50
2009,04,04,09,12,5.50
2009,04,04,09,13,5.60
2009,04,04,09,14,5.60
2009,04,04,09,15,5.60
2009,04,04,09,16,5.70
2009,04,04,09,17,5.70
2009,04,04,09,18,5.70
2009,04,04,09,19,5.70
2009,04,04,09,20,5.70
2009,04,04,09,21,5.70
2009,04,04,09,22,5.70
2009,04,04,09,23,5.70
2009,04,04,09,24,5.70
2009,04,04,09,25,5.70
2009,04,04,09,26,5.70
2009,04,04,09,27,5.80
2009,04,04,09,28,5.80
2009,04,04,09,29,5.70
2009,04,04,09,30,5.70
2009,04,04,09,31,5.70
2009,04,04,09,32,5.80
2009,04,04,09,33,5.80
2009,04,04,09,34,5.80
2009,04,04,09,35,5.80
2009,04,04,09,36,5.70
2009,04,04,09,37,5.70
2009,04,04,09,38,5.80
2009,04,04,09,39,5.80
2009,04,04,09,40,5.80
2009,04,04,09,41,5.90
2009,04,04,09,42,5.90
2009,04,04,09,43,5.90
2009,04,04,09,44,6.00
2009,04,04,09,45,6.00
2009,04,04,09,46,6.00
2009,04,04,09,47,5.90
2009,04,04,09,48,5.90
2009,04,04,09,49,5.90
2009,04,04,09,50,6.00
2009,04,04,09,51,6.00
2009,04,04,09,52,6.00
2009,04,04,09,53,6.00
2009,04,04,09,54,6.00
2009,04,04,09,55,6.00
2009,04,04,09,56,6.10
2009,04,04,09,57,6.10
2009,04,04,09,58,6.10
2009,04,04,09,59,6.20
2009,04,04,10,00,6.20
2009,04,04,10,01,6.30
2009,04,04,10,02,6.20
2009,04,04,10,03,6.20
2009,04,04,10,04,6.30
2009,04,04,10,05,6.30
2009,04,04,10,06,6.20
2009,04,04,10,07,6.20
2009,04,04,10,08,6.10
2009,04,04,10,09,6.10
2009,04,04,10,10,6.10
2009,04,04,10,11,6.00
2009,04,04,10,12,6.00
2009,04,04,10,13,6.00
2009,04,04,10,14,6.00
2009,04,04,10,15,6.00
2009,04,04,10,16,6.10
2009,04,04,10,17,6.10
2009,04,04,10,18,6.10
2009,04,04,10,19,6.10
2009,04,04,10,20,6.10
2009,04,04,10,21,6.20
2009,04,04,10,22,6.20
2009,04,04,10,23,6.20
2009,04,04,10,24,6.20
2009,04,04,10,25,6.20
2009,04,04,10,26,6.20
2009,04,04,10,27,6.20
2009,04,04,10,28,6.20
2009,04,04,10,29,6.30
2009,04,04,10,30,6.40
2009,04,04,10,31,6.40
2009,04,04,10,32,6.40
2009,04,04,10,33,6.40
2009,04,04,10,34,6.30
2009,04,04,10,35,6.20
2009,04,04,10,36,6.20
2009,04,04,10,37,6.30
2009,04,04,10,38,6.30
2009,04,04,10,39,6.30
2009,04,04,10,40,6.40
2009,04,04,10,41,6.40
2009,04,04,10,42,6.50
2009,04,04,10,43,6.40
2009,04,04,10,44,6.60
2009,04,04,10,45,6.60
2009,04,04,10,46,6.60
2009,04,04,10,47,6.70
2009,04,04,10,48,6.80
2009,04,04,10,49,6.90
2009,04,04,10,50,6.90
2009,04,04,10,51,6.90
2009,04,04,10,52,6.90
2009,04,04,10,53,6.90
2009,04,04,10,54,6.90
2009,04,04,10,55,6.90
2009,04,04,10,56,7.00
2009,04,04,10,57,7.10
2009,04,04,10,58,7.20
2009,04,04,10,59,7.30
2009,04,04,11,00,7.30
2009,04,04,11,01,7.30
2009,04,04,11,02,7.30
2009,04,04,11,03,7.20
2009,04,04,11,04,7.20
2009,04,04,11,05,7.10
2009,04,04,11,06,7.20
2009,04,04,11,07,7.20
2009,04,04,11,08,7.10
2009,04,04,11,09,7.20
2009,04,04,11,10,7.30
2009,04,04,11,11,7.30
2009,04,04,11,12,7.40
2009,04,04,11,13,7.50
2009,04,04,11,14,7.60
2009,04,04,11,15,7.60
2009,04,04,11,16,7.60
2009,04,04,11,17,7.60
2009,04,04,11,18,7.80
2009,04,04,11,19,7.70
2009,04,04,11,20,7.60
2009,04,04,11,21,7.60
2009,04,04,11,22,7.70
2009,04,04,11,23,7.70
2009,04,04,11,24,7.80
2009,04,04,11,25,7.80
2009,04,04,11,26,7.80
2009,04,04,11,27,7.90
2009,04,04,11,28,8.00
2009,04,04,11,29,8.10
2009,04,04,11,30,8.20
2009,04,04,11,31,8.20
2009,04,04,11,32,8.20
2009,04,04,11,33,8.20
2009,04,04,11,34,8.20
2009,04,04,11,35,8.20
2009,04,04,11,36,8.20
2009,04,04,11,37,8.20
2009,04,04,11,38,8.20
2009,04,04,11,39,8.30
2009,04,04,11,40,8.30
2009,04,04,11,41,8.30
2009,04,04,11,42,8.20
2009,04,04,11,43,8.10
2009,04,04,11,44,8.00
2009,04,04,11,45,8.00
2009,04,04,11,46,8.10
2009,04,04,11,47,8.10
2009,04,04,11,48,8.20
2009,04,04,11,49,8.20
2009,04,04,11,50,8.20
2009,04,04,11,51,8.20
2009,04,04,11,52,8.30
2009,04,04,11,53,8.40
2009,04,04,11,54,8.40
2009,04,04,11,55,8.50
2009,04,04,11,56,8.50
2009,04,04,11,57,8.40
2009,04,04,11,58,8.40
2009,04,04,11,59,8.40
2009,04,04,12,00,8.50
2009,04,04,12,01,8.40
2009,04,04,12,02,8.40
2009,04,04,12,03,8.50
2009,04,04,12,04,8.40
2009,04,04,12,05,8.40
2009,04,04,12,06,8.50
2009,04,04,12,07,8.60
2009,04,04,12,08,8.70
2009,04,04,12,09,8.70
2009,04,04,12,10,8.70
2009,04,04,12,11,8.80
2009,04,04,12,12,8.80
2009,04,04,12,13,8.90
2009,04,04,12,14,9.00
2009,04,04,12,15,9.00
2009,04,04,12,16,9.00
2009,04,04,12,17,9.00
2009,04,04,12,18,9.00
2009,04,04,12,19,8.90
2009,04,04,12,20,8.80
2009,04,04,12,21,8.90
2009,04,04,12,22,8.90
2009,04,04,12,23,8.90
2009,04,04,12,24,8.90
2009,04,04,12,25,9.00
2009,04,04,12,26,9.20
2009,04,04,12,27,9.40
2009,04,04,12,28,9.60
2009,04,04,12,29,9.60
2009,04,04,12,30,9.40
2009,04,04,12,31,9.40
2009,04,04,12,32,9.40
2009,04,04,12,33,9.60
2009,04,04,12,34,9.70
2009,04,04,12,35,9.70
2009,04,04,12,36,9.60
2009,04,04,12,37,9.60
2009,04,04,12,38,9.50
2009,04,04,12,39,9.40
2009,04,04,12,40,9.40
2009,04,04,12,41,9.40
2009,04,04,12,42,9.50
2009,04,04,12,43,9.60
2009,04,04,12,44,9.70
2009,04,04,12,45,9.90
2009,04,04,12,46,9.90
2009,04,04,12,47,9.80
2009,04,04,12,48,9.90
2009,04,04,12,49,9.90
2009,04,04,12,50,9.90
2009,04,04,12,51,9.90
2009,04,04,12,52,9.90
2009,04,04,12,53,9.80
2009,04,04,12,54,9.60
2009,04,04,12,55,9.50
2009,04,04,12,56,9.50
2009,04,04,12,57,9.50
2009,04,04,12,58,9.60
2009,04,04,12,59,9.70
2009,04,04,13,00,9.70
2009,04,04,13,01,9.70
2009,04,04,13,02,9.70
2009,04,04,13,03,9.50
2009,04,04,13,04,9.50
2009,04,04,13,05,9.60
2009,04,04,13,06,9.60
2009,04,04,13,07,9.70
2009,04,04,13,08,9.80
2009,04,04,13,09,9.70
2009,04,04,13,10,9.80
2009,04,04,13,11,9.90
2009,04,04,13,12,9.90
2009,04,04,13,13,9.90
2009,04,04,13,14,9.90
2009,04,04,13,15,9.90
2009,04,04,13,16,9.80
2009,04,04,13,17,9.80
2009,04,04,13,18,9.80
2009,04,04,13,19,9.90
2009,04,04,13,20,10.00
2009,04,04,13,21,9.90
2009,04,04,13,22,9.90
2009,04,04,13,23,9.70
2009,04,04,13,24,9.50
2009,04,04,13,25,9.50
2009,04,04,13,26,9.50
2009,04,04,13,27,9.40
2009,04,04,13,28,9.40
2009,04,04,13,29,9.50
2009,04,04,13,30,9.60
2009,04,04,13,31,9.70
2009,04,04,13,32,9.70
2009,04,04,13,33,9.60
2009,04,04,13,34,9.70
2009,04,04,13,35,9.70
2009,04,04,13,36,9.70
2009,04,04,13,37,9.80
2009,04,04,13,38,9.80
2009,04,04,13,39,9.80
2009,04,04,13,40,9.90
2009,04,04,13,41,9.90
2009,04,04,13,42,10.00
2009,04,04,13,43,9.90
2009,04,04,13,44,9.80
2009,04,04,13,45,9.70
2009,04,04,13,46,9.70
2009,04,04,13,47,9.70
2009,04,04,13,48,9.80
2009,04,04,13,49,9.80
2009,04,04,13,50,9.70
2009,04,04,13,51,9.80
2009,04,04,13,52,9.80
2009,04,04,13,53,9.70
2009,04,04,13,54,9.70
2009,04,04,13,55,9.80
2009,04,04,13,56,9.80
2009,04,04,13,57,9.80
2009,04,04,13,58,9.90
2009,04,04,13,59,9.90
2009,04,04,14,00,9.90
2009,04,04,14,01,9.90
2009,04,04,14,02,10.00
2009,04,04,14,03,10.10
2009,04,04,14,04,9.90
2009,04,04,14,05,9.80
2009,04,04,14,06,9.70
2009,04,04,14,07,9.70
2009,04,04,14,08,9.70
2009,04,04,14,09,9.70
2009,04,04,14,10,9.70
2009,04,04,14,11,9.70
2009,04,04,14,12,9.70
2009,04,04,14,13,9.60
2009,04,04,14,14,9.60
2009,04,04,14,15,9.60
2009,04,04,14,16,9.60
2009,04,04,14,17,9.60
2009,04,04,14,18,9.60
2009,04,04,14,19,9.70
2009,04,04,14,20,9.80
2009,04,04,14,21,9.90
2009,04,04,14,22,9.80
2009,04,04,14,23,9.90
2009,04,04,14,24,9.90
2009,04,04,14,25,9.90
2009,04,04,14,26,9.90
2009,04,04,14,27,9.90
2009,04,04,14,28,9.80
2009,04,04,14,29,9.70
2009,04,04,14,30,9.70
2009,04,04,14,31,9.70
2009,04,04,14,32,9.70
2009,04,04,14,33,9.80
2009,04,04,14,34,9.90
2009,04,04,14,35,9.90
2009,04,04,14,36,9.90
2009,04,04,14,37,9.90
2009,04,04,14,38,10.00
2009,04,04,14,39,10.10
2009,04,04,14,40,10.00
2009,04,04,14,41,9.90
2009,04,04,14,42,9.90
2009,04,04,14,43,10.10
2009,04,04,14,44,10.20
2009,04,04,14,45,10.20
2009,04,04,14,46,10.10
2009,04,04,14,47,10.10
2009,04,04,14,48,10.10
2009,04,04,14,49,10.10
2009,04,04,14,50,10.10
2009,04,04,14,51,10.00
2009,04,04,14,52,10.10
2009,04,04,14,53,10.10
2009,04,04,14,54,10.10
2009,04,04,14,55,10.10
2009,04,04,14,56,10.10
2009,04,04,14,57,10.20
2009,04,04,14,58,10.30
2009,04,04,14,59,10.40
2009,04,04,15,00,10.30
2009,04,04,15,01,10.20
2009,04,04,15,02,10.20
2009,04,04,15,03,10.20
2009,04,04,15,04,10.20
2009,04,04,15,05,10.10
2009,04,04,15,06,10.10
2009,04,04,15,07,10.10
2009,04,04,15,08,10.10
2009,04,04,15,09,10.10
2009,04,04,15,10,10.10
2009,04,04,15,11,10.00
2009,04,04,15,12,9.90
2009,04,04,15,13,10.00
2009,04,04,15,14,10.10
2009,04,04,15,15,10.10
2009,04,04,15,16,10.10
2009,04,04,15,17,10.10
2009,04,04,15,18,10.00
2009,04,04,15,19,10.10
2009,04,04,15,20,9.90
2009,04,04,15,21,10.00
2009,04,04,15,22,10.10
2009,04,04,15,23,10.10
2009,04,04,15,24,10.20
2009,04,04,15,25,10.20
2009,04,04,15,26,10.10
2009,04,04,15,27,10.10
2009,04,04,15,28,10.10
2009,04,04,15,29,10.00
2009,04,04,15,30,9.90
2009,04,04,15,31,9.90
2009,04,04,15,32,9.90
2009,04,04,15,33,9.90
2009,04,04,15,34,10.00
2009,04,04,15,35,10.00
2009,04,04,15,36,10.10
2009,04,04,15,37,10.10
2009,04,04,15,38,10.10
2009,04,04,15,39,10.10
2009,04,04,15,40,10.10
2009,04,04,15,41,10.10
2009,04,04,15,42,10.10
2009,04,04,15,43,10.20
2009,04,04,15,44,10.20
2009,04,04,15,45,10.20
2009,04,04,15,46,10.30
2009,04,04,15,47,10.20
2009,04,04,15,48,10.20
2009,04,04,15,49,10.20
2009,04,04,15,50,10.20
2009,04,04,15,51,10.30
2009,04,04,15,52,10.30
2009,04,04,15,53,10.30
2009,04,04,15,54,10.20
2009,04,04,15,55,10.20
2009,04,04,15,56,10.20
2009,04,04,15,57,10.20
2009,04,04,15,58,10.30
2009,04,04,15,59,10.30
2009,04,04,16,00,10.30
2009,04,04,16,01,10.30
2009,04,04,16,02,10.20
2009,04,04,16,03,10.20
2009,04,04,16,04,10.10
2009,04,04,16,05,10.10
2009,04,04,16,06,10.20
2009,04,04,16,07,10.10
2009,04,04,16,08,10.20
2009,04,04,16,09,10.20
2009,04,04,16,10,10.30
2009,04,04,16,11,10.40
2009,04,04,16,12,10.30
2009,04,04,16,13,10.30
2009,04,04,16,14,10.40
2009,04,04,16,15,10.40
2009,04,04,16,16,10.40
2009,04,04,16,17,10.40
2009,04,04,16,18,10.40
2009,04,04,16,19,10.40
2009,04,04,16,20,10.40
2009,04,04,16,21,10.40
2009,04,04,16,22,10.40
2009,04,04,16,23,10.40
2009,04,04,16,24,10.40
2009,04,04,16,25,10.40
2009,04,04,16,26,10.40
2009,04,04,16,27,10.40
2009,04,04,16,28,10.40
2009,04,04,16,29,10.40
2009,04,04,16,30,10.30
2009,04,04,16,31,10.20
2009,04,04,16,32,10.20
2009,04,04,16,33,10.20
2009,04,04,16,34,10.30
2009,04,04,16,35,10.40
2009,04,04,16,36,10.40
2009,04,04,16,37,10.40
2009,04,04,16,38,10.40
2009,04,04,16,39,10.50
2009,04,04,16,40,10.60
2009,04,04,16,41,10.60
2009,04,04,16,42,10.60
2009,04,04,16,43,10.60
2009,04,04,16,44,10.60
2009,04,04,16,45,10.60
2009,04,04,16,46,10.60
2009,04,04,16,47,10.60
2009,04,04,16,48,10.70
2009,04,04,16,49,10.70
2009,04,04,16,50,10.70
2009,04,04,16,51,10.80
2009,04,04,16,52,10.80
2009,04,04,16,53,10.80
2009,04,04,16,54,10.80
2009,04,04,16,55,10.90
2009,04,04,16,56,10.90
2009,04,04,16,57,10.90
2009,04,04,16,58,10.90
2009,04,04,16,59,10.90
2009,04,04,17,00,10.90
2009,04,04,17,01,10.90
2009,04,04,17,02,10.90
2009,04,04,17,03,10.90
2009,04,04,17,04,10.90
2009,04,04,17,05,11.00
2009,04,04,17,06,10.90
2009,04,04,17,07,10.90
2009,04,04,17,08,10.90
2009,04,04,17,09,10.90
2009,04,04,17,10,10.90
2009,04,04,17,11,10.90
2009,04,04,17,12,10.90
2009,04,04,17,13,11.00
2009,04,04,17,14,11.10
2009,04,04,17,15,11.10
2009,04,04,17,16,11.10
2009,04,04,17,17,11.10
2009,04,04,17,18,11.00
2009,04,04,17,19,10.90
2009,04,04,17,20,11.00
2009,04,04,17,21,11.10
2009,04,04,17,22,11.10
2009,04,04,17,23,11.10
2009,04,04,17,24,11.10
2009,04,04,17,25,11.10
2009,04,04,17,26,11.10
2009,04,04,17,27,11.10
2009,04,04,17,28,11.10
2009,04,04,17,29,11.10
2009,04,04,17,30,11.10
2009,04,04,17,31,11.10
2009,04,04,17,32,11.10
2009,04,04,17,33,11.10
2009,04,04,17,34,11.10
2009,04,04,17,35,11.10
2009,04,04,17,36,11.10
2009,04,04,17,37,11.10
2009,04,04,17,38,11.10
2009,04,04,17,39,11.20
2009,04,04,17,40,11.20
2009,04,04,17,41,11.20
2009,04,04,17,42,11.20
2009,04,04,17,43,11.20
2009,04,04,17,44,11.10
2009,04,04,17,45,11.10
2009,04,04,17,46,11.20
2009,04,04,17,47,11.20
2009,04,04,17,48,11.20
2009,04,04,17,49,11.20
2009,04,04,17,50,11.20
2009,04,04,17,51,11.20
2009,04,04,17,52,11.20
2009,04,04,17,53,11.10
2009,04,04,17,54,11.10
2009,04,04,17,55,11.10
2009,04,04,17,56,11.10
2009,04,04,17,57,11.20